Regional Weather Roundup
Issued by NWS Wakefield, VA

Home | Current Version | Previous Version | Graphics & Text | Print | Product List | Glossary On
Versions: 1 2 3 4 5 6 7 8 9 10 11 12 13 14 15 16 17 18 19 20 21 22 23 24 25 26 27 28 29 30 31 32 33 34 35 36 37 38 39 40 41 42 43 44 45 46 47 48 49 50
000
ASUS41 KAKQ 270910
RWRAKQ

REGIONAL WEATHER ROUNDUP
NATIONAL WEATHER SERVICE WAKEFIELD VA
500 AM EDT WED AUG 27 2014

Note: "fair" indicates few or no clouds below 12,000 feet with no
significant weather and/or obstructions to visibility. * = Denotes
station may not report precipitation (e.g., rain,snow,etc.),
thunder or fog.

VAZ042-051-052>054-056-271000-
NORTHERN VIRGINIA

CITY           SKY/WX    TMP DP  RH WIND       PRES   REMARKS
WASH NATIONAL  PTCLDY    71  65  81 CALM      30.05S
DULLES         CLEAR     61  60  97 CALM      30.06S
FORT BELVOIR   CLEAR     61  61 100 CALM      30.05F FOG
QUANTICO       CLEAR     65  62  90 NW5       30.06R
FREDERICKSBRG* CLEAR     61  61 100 CALM      30.05S FOG
STAFFORD*      FOG       59  59 100 CALM      30.09S VSB 1/2
WARRENTON      FOG       56  56 100 CALM      30.05S VSB 1/4
CULPEPER*      CLEAR    N/A N/A N/A CALM      30.06S
MANASSAS*      CLOUDY    61  61 100 CALM      30.05F VSB 1/2
LEESBURG*      CLEAR     63  63 100 CALM      30.07S
WINCHESTER     CLEAR     61  59  94 CALM      30.09R
$$

VAZ048-049-060>072-079>083-271000-
CENTRAL AND SOUTH CENTRAL VIRGINIA...AND NORTH CENTRAL NORTH CAROLINA

CITY           SKY/WX    TMP DP  RH WIND       PRES   REMARKS
RICHMOND       CLEAR     62  58  86 CALM      30.06S
CHESTERFIELD*  SUNNY    N/A N/A N/A CALM      30.06F
HANOVER        CLEAR     58  57  97 CALM      30.07S
TAPPAHANNOCK*  CLEAR     56  54  91 CALM      30.07S
CHARLOTTSVILLE CLEAR     59  57  93 S3        30.07S
ORANGE*        CLEAR     57  55  94 CALM      30.07S
LOUISA*        FOG       57  57 100 CALM      30.05S VSB 1/2
FARMVILLE*     FOG       55  55 100 CALM      30.06R VSB 1/4
SOUTH HILL*    CLEAR     61  61 100 CALM      30.12R
ROANOKE RAPIDS FOG       55  55 100 CALM      30.04S VSB 1/2
RALEIGH        PTCLDY    59  57  93 CALM      30.07R
$$

VAZ088>098-271000-
SOUTHEAST VIRGINIA

CITY           SKY/WX    TMP DP  RH WIND       PRES   REMARKS
NORFOLK        MOCLDY    73  68  84 NE9       30.02S
VIRGINIA BEACH PTCLDY    72  69  90 NE6       30.01S
NORFOLK NAVAL  MOCLDY    74  68  81 NE10      30.04S
WEST POINT*    PTCLDY    58  56  92 CALM      30.07S
NEWPORT NEWS   PTCLDY    64  62  93 N5        30.04S FOG
LANGLEY AFB    CLEAR     66  66 100 CALM      30.03S FOG
FORT EUSTIS    CLEAR     66 N/A N/A N2        30.02S
WILLIAMSBURG*  CLEAR     64  63  94 CALM      30.06R
FRANKLIN*      CLOUDY    59 N/A N/A CALM      30.04S VSB<1/4
WAKEFIELD      FOG       57  55  93 CALM      30.05S VSB 3/4
$$

VAZ020-022-025-037-045-271000-
WESTERN AND SOUTHWEST VIRGINIA

CITY           SKY/WX    TMP DP  RH WIND       PRES   REMARKS
STAUNTON*      CLEAR     54  52  94 CALM      30.13S
HOT SPRINGS VA CLEAR     57  57 100 W8        30.22S
LYNCHBURG      CLEAR     55  55 100 CALM      30.10S
DANVILLE       CLEAR     59  56  89 SW3       30.08S
MARTINSVILLE   CLEAR     54  54 100 CALM      30.12R
ROANOKE        CLEAR     59  56  89 W3        30.13R
BLACKSBURG     FOG       54  54 100 CALM      30.17R VSB<1/4
DUBLIN*        FOG       52  52 100 CALM      30.17R VSB 3/4
MARION*        FOG      N/A N/A N/A CALM      30.19S VSB 1/4
HILLSVILLE*    PTCLDY    52  52 100 SW3       30.17S
RICHLANDS*     SUNNY     60  56  88 CALM      30.17S
WISE*          PTCLDY    59  52  77 S5        30.18S
ABINGDON*      CLEAR     59  56  90 CALM      30.15F
$$

MDZ021>025-VAZ099-100-271000-
SOUTHERN MARYLAND AND THE DELMARVA PENINSULA

CITY           SKY/WX    TMP DP  RH WIND       PRES   REMARKS
PATUXENT RIVER CLEAR     59  58  96 CALM      30.05S
BAY BRIDGE APT   N/A     66  64  94 CALM      30.05S
LEONARDTOWN    CLEAR     61  59  94 CALM      30.07S
DOVER          CLEAR     63  63 100 CALM      30.04S
GEORGETOWN     FOG       59  58  96 S5        30.07R VSB 1/4
EASTON         CLEAR     62  62 100 CALM      30.09R
CAMBRIDGE      CLOUDY    61  59  94 CALM      30.05F VSB 1/2
SALISBURY      FOG       61  57  88 CALM      30.06S VSB 1/2
OCEAN CITY     CLOUDY    59  57  93 NW3       30.06R
WALLOPS ISLAND CLEAR     65  63  93 N5        30.06R
ACCOMACK*      NOT AVBL
$$

NCZ012>017-030>032-271000-
EASTERN NORTH CAROLINA

CITY           SKY/WX    TMP DP  RH WIND       PRES   REMARKS
ELIZABETH CITY CLOUDY    69  69 100 N8        30.00F FOG
AHOSKIE*       CLOUDY    60  60  98 CALM      30.04S VSB 1/4
EDENTON*       DRZL/FOG  67  66  97 N6        30.01S VSB 1/2
CURRITUCK*     CLEAR     72  69  92 N6        30.01F
KILL DEVIL HLS CLEAR     74  71  91 NE6       29.97S
MANTEO         PTCLDY    73  71  92 NE10G17   29.98R
CAPE HATTERAS  CLEAR     74  73  97 NE12G17   29.95S
GOLDSBORO      MOCLDY    64  64 100 VRB3      30.00F
WASHINGTON     CLOUDY    65  64  99 N5        30.01S VSB 1/2
GREENVILLE     LGT RAIN  63  63 100 N3        30.03S VSB 1/2
NEW BERN       CLOUDY    70  67  90 N6        29.99S
WILMINGTON     PTCLDY    67  65  93 N7        29.97S
$$

VAZ048-271000-
ELSEWHERE

CITY           SKY/WX    TMP DP  RH WIND       PRES   REMARKS
HARRISBURG PA  CLEAR     65  61  87 CALM      30.06R
BALTIMORE      PTCLDY    63  61  93 CALM      30.04S
ANNAPOLIS      CLEAR     67  64  90 W3        30.04F
ANDREWS AFB    CLEAR     61  61 100 CALM      30.05F
WILMINGTON DE  CLEAR     64  62  93 CALM      30.05F
PHILADELPHIA   CLEAR     69  61  75 SW3       30.05S
WILDWOOD NJ*   CLEAR     59  55  88 CALM      30.07R
ATLANTIC CITY  CLEAR     61  60  97 CALM      30.05S
HENDERSON NC     N/A     59  58  96 CALM      30.07S FOG
GREENSBORO     CLEAR     63  59  87 CALM      30.08S
ROCKY MOUNT    CLEAR     59  57  93 N3        30.04S
FAYETTEVILLE   CLEAR     64  61  90 N6        30.02F
CHARLOTTE      CLEAR     59  57  93 N3        30.08S
$$

VAZ100-271000-
MARINE

STATION/POSITION TIME  TEMP    WIND        PRES    WAVE   SWELL
                       AIR SEA DIR/SP/G            HT/PER HT/PER
                 (UTC) (F)     (DEG/KT/KT) (MB)    (FT/S) (FT/S)
44066 TX TWR #4  0900   71 72  270/  2/  2 1017.7R   4/10   3/10
CAPE MAY NJ      0900   65 79   CALM  /  1 1017.2S
LEWES DE         0900   66 76  230/  4/  4 1017.5R
15NM E FENWICK I 0900   72 73              1017.7S   4/ 9
OCEAN-CITY-INLET 0900   68 75   10/  2/  3 1017.2S
WACHAPREAGUE VA  0900   67 76  320/  2/  5 1016.9S
THOMAS POINT MD  0900   71 78  220/  4/  5 1018.5S
GOOSES REEF MD   0900   72     260/  2/  4 1017.9S
COVE POINT MD    0900   71     220/  4/  4 1017.4F
SOLOMONS ISLAND  0900      79                N/A
BISHOPS HEAD MD  0900   70 76  110/  5/  6 1017.2S
PINEY POINT MD   0900          250/  3/  4   N/A
POTOMAC MD       0900   73     150/  4/  6 1016.9F
CAMBRIDGE MD     0900   64 78  170/  3/  4 1017.4R
LEWISETTA VA     0900   67 77  250/  3/  4 1017.4R
RAPPAHANNOCK LGT 0900           30/  7/  8 1017.7R
STINGRAY PT      0900   72      70/  4/  6   N/A
YORK RVR RNG VA  0900   73      40/  6/  7 1016.5S
YORKTOWN VA      0900   70 79  360/  7/  8 1016.7F
JAMESTOWN VA     0900   67      50/  4/  6   N/A
DOMINION TERM VA 0900   70     360/  5/  6 1016.7F
KIPTOPEKE VA     0900      80   20/  5/  6   N/A
CHES BAY BRIDGE  0900   73 77   30/  9/ 12 1016.1R
CAPE HENRY VA    0900   73      40/ 11/ 13 1015.3F
CHESAPEAKE LGHT  0800   73      30/ 12/ 12 1017.1F
WILLOUBY STN VA  0900   73      30/  8/  9 1015.5S
S CRANEY ISL VA  0900          360/  7/  8 1016.4S
CAPE HENRY BUOY  0900      76                N/A     4/ 8   2/13
1ST LANDING BUOY 0900   74      40/ 10/ 12 1016.3R
CAPE CHARLES BUO 0900      76                N/A     4/10   5/10
OFFSHORE WE BUOY 0900      75                N/A     6/13   5/13
64NM E OF VA BCH 0900   77 78   50/ 14/ 16 1014.9S   6/12   5/12
DUCK PIER NC     0900   75 76   20/ 14/ 15 1014.6F
44056 DUCK FRF   0800                        N/A     5/12   2/12
OREGON INLET NC  0900   75 78   30/ 13/ 18 1014.8R
HATTERAS NC      0900   76 78   30/ 12/ 16 1014.5F
DIAMOND SHLS NC  0900   77      10/ 19/ 23 1012.9F   8/10   5/10
CAPE LOOKOUT NC  0900   74      20/ 12/ 15 1013.9S
$$


USA.gov is the U.S. government's official web portal to all federal, state and local government web resources and services.